| time (UTC) | temp C | wind direction | speed KPH | gust KPH | rain 1hr cm | rain 24hr cm | rain mn cm | humidity % | barometer mb |
| 20260504050525 | -17 | 226 | 0.0 | 0.0 | 0.00 | 0.00 | 0.00 | 2 | 1018.0 |
| 20260504045521 | -17 | 226 | 0.0 | 0.0 | 0.00 | 0.00 | 0.00 | 2 | 1017.8 |
| 20260504045020 | -17 | 226 | 0.0 | 0.0 | 0.00 | 0.00 | 0.00 | 3 | 1017.6 |
| 20260504044519 | -17 | 226 | 0.0 | 0.0 | 0.00 | 0.00 | 0.00 | 6 | 1017.4 |
| 20260504044017 | -17 | 226 | 0.0 | 0.0 | 0.00 | 0.00 | 0.00 | 8 | 1017.3 |
| 20260504043516 | -17 | 226 | 0.0 | 0.0 | 0.00 | 0.00 | 0.00 | 8 | 1017.2 |
| 20260504043016 | -17 | 226 | 0.0 | 0.0 | 0.00 | 0.00 | 0.00 | 8 | 1017.1 |
| 20260504042513 | -17 | 225 | 0.0 | 0.0 | 0.00 | 0.00 | 0.00 | 9 | 1017.2 |
| 20260504042012 | -17 | 231 | 0.0 | 0.0 | 0.00 | 0.00 | 0.00 | 11 | 1017.4 |
| 20260504041513 | -17 | 231 | 0.0 | 1.6 | 0.00 | 0.00 | 0.00 | 12 | 1017.6 |
| 20260504041008 | -17 | 231 | 0.0 | 1.6 | 0.00 | 0.00 | 0.00 | 8 | 1017.6 |
| 20260504040508 | -17 | 302 | 0.0 | 0.0 | 0.00 | 0.00 | 0.00 | 2 | 1017.5 |
| 20260504040005 | -17 | 212 | 0.0 | 0.0 | 0.00 | 0.00 | 0.00 | 2 | 1017.6 |
| 20260504035504 | -17 | 212 | 0.0 | 0.0 | 0.00 | 0.00 | 0.00 | 2 | 1017.6 |
| 20260504035003 | -17 | 212 | 0.0 | 0.0 | 0.00 | 0.00 | 0.00 | 2 | 1017.5 |
| 20260504034502 | -17 | 212 | 0.0 | 0.0 | 0.00 | 0.00 | 0.00 | 6 | 1017.4 |
| 20260504034100 | -17 | 212 | 0.0 | 0.0 | 0.00 | 0.00 | 0.00 | 10 | 1017.4 |
| 20260504033601 | -17 | 212 | 0.0 | 0.0 | 0.00 | 0.00 | 0.00 | 11 | 1017.4 |
| 20260504033057 | -17 | 212 | 0.0 | 0.0 | 0.00 | 0.00 | 0.00 | 15 | 1017.4 |
| 20260504032555 | -17 | 212 | 0.0 | 0.0 | 0.00 | 0.00 | 0.00 | 19 | 1017.4 |
| 20260504032057 | -17 | 212 | 0.0 | 0.0 | 0.00 | 0.00 | 0.00 | 23 | 1017.5 |
| 20260504031601 | -17 | 212 | 0.0 | 0.0 | 0.00 | 0.00 | 0.00 | 24 | 1017.6 |
| 20260504031052 | -17 | 249 | 0.0 | 0.0 | 0.00 | 0.00 | 0.00 | 22 | 1017.7 |
| 20260504030549 | -17 | 234 | 0.0 | 0.0 | 0.00 | 0.00 | 0.00 | 19 | 1017.7 |
| 20260504030049 | -17 | 234 | 0.0 | 0.0 | 0.00 | 0.00 | 0.00 | 22 | 1017.7 |
| 20260504025549 | -17 | 234 | 0.0 | 0.0 | 0.00 | 0.00 | 0.00 | 20 | 1017.8 |
| 20260504025046 | -17 | 234 | 0.0 | 0.0 | 0.00 | 0.00 | 0.00 | 19 | 1017.8 |
| 20260504024545 | -17 | 234 | 0.0 | 0.0 | 0.00 | 0.00 | 0.00 | 21 | 1017.7 |
| 20260504024042 | -17 | 248 | 0.0 | 0.0 | 0.00 | 0.00 | 0.00 | 23 | 1017.7 |
| 20260504023541 | -17 | 248 | 0.0 | 1.6 | 0.00 | 0.00 | 0.00 | 25 | 1017.7 |
| 20260504023040 | -17 | 204 | 0.0 | 0.0 | 0.00 | 0.00 | 0.00 | 25 | 1017.6 |
| 20260504022538 | -17 | 205 | 0.0 | 0.0 | 0.00 | 0.00 | 0.00 | 26 | 1017.6 |
| 20260504022037 | -17 | 203 | 0.0 | 0.0 | 0.00 | 0.00 | 0.00 | 28 | 1017.8 |
| 20260504021537 | -17 | 271 | 0.0 | 0.0 | 0.00 | 0.00 | 0.00 | 29 | 1017.7 |
| 20260504021035 | -17 | 329 | 0.0 | 0.0 | 0.00 | 0.00 | 0.00 | 29 | 1017.7 |
| 20260504020532 | -17 | 211 | 0.0 | 0.0 | 0.00 | 0.00 | 0.00 | 28 | 1017.7 |
| 20260504020031 | -17 | 205 | 0.0 | 0.0 | 0.00 | 0.00 | 0.00 | 28 | 1017.6 |
| 20260504015529 | -17 | 252 | 0.0 | 0.0 | 0.00 | 0.00 | 0.00 | 29 | 1017.6 |
| 20260504015028 | -17 | 344 | 0.0 | 0.0 | 0.00 | 0.00 | 0.00 | 28 | 1017.6 |
| 20260504014531 | -17 | 279 | 0.0 | 0.0 | 0.00 | 0.00 | 0.00 | 28 | 1017.6 |
| 20260504014025 | -17 | 280 | 0.0 | 0.0 | 0.00 | 0.00 | 0.00 | 28 | 1017.5 |
| 20260504013523 | -17 | 280 | 0.0 | 0.0 | 0.00 | 0.00 | 0.00 | 29 | 1017.5 |
| 20260504013025 | -17 | 280 | 0.0 | 0.0 | 0.00 | 0.00 | 0.00 | 30 | 1017.4 |
| 20260504012520 | -17 | 280 | 0.0 | 0.0 | 0.00 | 0.00 | 0.00 | 36 | 1017.2 |
| 20260504012019 | -17 | 280 | 0.0 | 0.0 | 0.00 | 0.00 | 0.00 | 40 | 1017.2 |
| 20260504011517 | -17 | 280 | 0.0 | 0.0 | 0.00 | 0.00 | 0.00 | 42 | 1017.2 |
| 20260504011017 | -17 | 280 | 0.0 | 0.0 | 0.00 | 0.00 | 0.00 | 47 | 1017.4 |
| 20260504010513 | -17 | 280 | 0.0 | 0.0 | 0.00 | 0.00 | 0.00 | 49 | 1017.6 |
| 20260504010012 | -17 | 298 | 0.0 | 0.0 | 0.00 | 0.00 | 0.00 | 50 | 1017.8 |
| 20260504005512 | -17 | 298 | 0.0 | 0.0 | 0.00 | 0.00 | 0.00 | 51 | 1018.1 |
| 20260504005013 | -17 | 297 | 0.0 | 0.0 | 0.00 | 0.00 | 0.00 | 51 | 1018.3 |
| 20260504004516 | -17 | 298 | 0.0 | 0.0 | 0.00 | 0.00 | 0.00 | 54 | 1018.6 |
| 20260504004006 | -17 | 307 | 0.0 | 0.0 | 0.00 | 0.00 | 0.00 | 56 | 1018.4 |
| 20260504003504 | -17 | 299 | 0.0 | 1.6 | 0.00 | 0.00 | 0.00 | 57 | 1018.6 |
| 20260504003005 | -17 | 299 | 0.0 | 1.6 | 0.00 | 0.00 | 0.00 | 65 | 1018.9 |
| 20260504002502 | -17 | 38 | 0.0 | 1.6 | 0.00 | 0.00 | 0.00 | 62 | 1018.8 |
| 20260504002100 | -17 | 114 | 0.0 | 4.8 | 0.00 | 0.00 | 0.00 | 63 | 1018.8 |
| 20260504002003 | -17 | 128 | 0.0 | 4.8 | 0.00 | 0.00 | 0.00 | 63 | 1018.7 |
| 20260504001601 | -17 | 278 | 0.0 | 4.8 | 0.00 | 0.00 | 0.00 | 63 | 1018.5 |
| 20260504001100 | -17 | 94 | 0.0 | 0.0 | 0.00 | 0.00 | 0.00 | 61 | 1018.1 |
| 20260504000556 | -17 | 94 | 0.0 | 1.6 | 0.00 | 0.00 | 0.00 | 61 | 1017.6 |
| 20260504000054 | -17 | 94 | 0.0 | 1.6 | 0.00 | 0.00 | 0.00 | 61 | 1017.2 |
| 20260503235553 | -17 | 352 | 0.0 | 1.6 | 0.00 | 0.00 | 0.00 | 61 | 1016.9 |
| 20260503235053 | -17 | 352 | 0.0 | 1.6 | 0.00 | 0.00 | 0.00 | 63 | 1016.6 |
| 20260503234612 | -17 | 18 | 0.0 | 0.0 | 0.00 | 0.00 | 0.00 | 64 | 1016.2 |
| 20260503234053 | -17 | 18 | 0.0 | 0.0 | 0.00 | 0.00 | 0.00 | 64 | 1016.1 |
| 20260503233548 | -17 | 18 | 0.0 | 0.0 | 0.00 | 0.00 | 0.00 | 65 | 1015.8 |
| 20260503233049 | -17 | 18 | 0.0 | 3.2 | 0.00 | 0.00 | 0.00 | 67 | 1015.7 |
| 20260503232543 | -17 | 315 | 0.0 | 3.2 | 0.00 | 0.00 | 0.00 | 67 | 1015.5 |
| 20260503232042 | -17 | 274 | 0.0 | 0.0 | 0.00 | 0.00 | 0.00 | 67 | 1015.5 |
| 20260503231541 | -17 | 281 | 0.0 | 0.0 | 0.00 | 0.00 | 0.00 | 68 | 1015.5 |
| 20260503231040 | -17 | 281 | 0.0 | 0.0 | 0.00 | 0.00 | 0.00 | 68 | 1015.7 |
| 20260503230541 | -17 | 281 | 0.0 | 0.0 | 0.00 | 0.00 | 0.00 | 69 | 1015.8 |
| 20260503230037 | -17 | 280 | 0.0 | 1.6 | 0.00 | 0.00 | 0.00 | 71 | 1016.0 |
| 20260503225536 | -17 | 281 | 0.0 | 1.6 | 0.00 | 0.00 | 0.00 | 71 | 1016.1 |
| 20260503225033 | -17 | 78 | 0.0 | 0.0 | 0.00 | 0.00 | 0.00 | 71 | 1016.0 |
| 20260503224532 | -17 | 78 | 0.0 | 0.0 | 0.00 | 0.00 | 0.00 | 72 | 1016.2 |
| 20260503224031 | -17 | 78 | 0.0 | 6.4 | 0.00 | 0.00 | 0.00 | 73 | 1016.2 |
| 20260503223530 | -17 | 90 | 0.0 | 6.4 | 0.00 | 0.00 | 0.00 | 73 | 1016.3 |
| 20260503223028 | -17 | 100 | 0.0 | 4.8 | 0.00 | 0.00 | 0.00 | 74 | 1016.3 |
| 20260503222526 | -17 | 359 | 0.0 | 6.4 | 0.00 | 0.00 | 0.00 | 74 | 1016.5 |
| 20260503222024 | -17 | 72 | 3.2 | 8.0 | 0.00 | 0.00 | 0.00 | 75 | 1016.6 |
| 20260503221529 | -17 | 91 | 3.2 | 8.0 | 0.00 | 0.00 | 0.00 | 73 | 1016.3 |
| 20260503221022 | -17 | 129 | 0.0 | 0.0 | 0.00 | 0.00 | 0.00 | 72 | 1016.0 |
| 20260503220520 | -17 | 129 | 0.0 | 0.0 | 0.00 | 0.00 | 0.00 | 76 | 1016.1 |
| 20260503220019 | -17 | 129 | 0.0 | 0.0 | 0.00 | 0.00 | 0.00 | 77 | 1016.1 |
| 20260503215519 | -17 | 129 | 0.0 | 0.0 | 0.00 | 0.00 | 0.00 | 76 | 1016.3 |
| 20260503215016 | -17 | 129 | 0.0 | 0.0 | 0.00 | 0.00 | 0.00 | 75 | 1016.3 |
| 20260503214515 | -17 | 129 | 0.0 | 0.0 | 0.00 | 0.00 | 0.00 | 76 | 1016.1 |
| 20260503214013 | -17 | 129 | 0.0 | 0.0 | 0.00 | 0.00 | 0.00 | 77 | 1016.2 |
| 20260503213512 | -17 | 122 | 0.0 | 0.0 | 0.00 | 0.00 | 0.00 | 79 | 1016.3 |
| 20260503213010 | -17 | 120 | 0.0 | 1.6 | 0.00 | 0.00 | 0.00 | 78 | 1016.4 |
| 20260503212508 | -17 | 122 | 0.0 | 1.6 | 0.00 | 0.00 | 0.00 | 80 | 1016.5 |
| 20260503212007 | -17 | 89 | 0.0 | 1.6 | 0.00 | 0.00 | 0.00 | 80 | 1016.3 |
| 20260503211505 | -17 | 107 | 0.0 | 1.6 | 0.00 | 0.00 | 0.00 | 79 | 1016.0 |
| 20260503211004 | -17 | 107 | 0.0 | 1.6 | 0.00 | 0.00 | 0.00 | 80 | 1016.0 |
| 20260503210503 | -17 | 84 | 0.0 | 0.0 | 0.00 | 0.00 | 0.00 | 82 | 1016.0 |
| 20260503210002 | -17 | 84 | 0.0 | 1.6 | 0.00 | 0.00 | 0.00 | 84 | 1016.1 |
| 20260503205600 | -17 | 84 | 0.0 | 1.6 | 0.00 | 0.00 | 0.00 | 85 | 1016.3 |
| 20260503205058 | -17 | 71 | 0.0 | 0.0 | 0.00 | 0.00 | 0.00 | 87 | 1016.4 |
| 20260503204558 | -17 | 72 | 0.0 | 1.6 | 0.00 | 0.00 | 0.00 | 90 | 1016.5 |
| 20260503204056 | -17 | 71 | 0.0 | 1.6 | 0.00 | 0.00 | 0.00 | 90 | 1016.5 |
| 20260503203555 | -17 | 71 | 0.0 | 1.6 | 0.00 | 0.00 | 0.00 | 95 | 1016.5 |
| 20260503203057 | -17 | 43 | 0.0 | 0.0 | 0.00 | 0.00 | 0.00 | 99 | 1016.5 |
| 20260503202552 | -17 | 43 | 0.0 | 0.0 | 0.00 | 0.00 | 0.00 | 100 | 1016.8 |
| 20260503202052 | -17 | 43 | 0.0 | 0.0 | 0.00 | 0.00 | 0.00 | 100 | 1016.8 |
| 20260503201551 | -17 | 42 | 0.0 | 0.0 | 0.00 | 0.00 | 0.00 | 100 | 1016.7 |
| 20260503201046 | -17 | 42 | 0.0 | 0.0 | 0.00 | 0.00 | 0.00 | 100 | 1016.9 |
| 20260503200545 | -17 | 42 | 0.0 | 0.0 | 0.00 | 0.00 | 0.00 | 100 | 1017.1 |
| 20260503200050 | -17 | 42 | 0.0 | 0.0 | 0.00 | 0.00 | 0.00 | 100 | 1017.1 |
| 20260503195546 | -17 | 79 | 0.0 | 1.6 | 0.00 | 0.00 | 0.00 | 100 | 1017.2 |
| 20260503195044 | -17 | 79 | 0.0 | 1.6 | 0.00 | 0.00 | 0.00 | 100 | 1017.5 |
| 20260503194543 | -17 | 79 | 0.0 | 0.0 | 0.00 | 0.00 | 0.00 | 100 | 1017.4 |
| 20260503194039 | -17 | 79 | 0.0 | 0.0 | 0.00 | 0.00 | 0.00 | 100 | 1017.6 |
| 20260503193537 | -17 | 79 | 0.0 | 0.0 | 0.00 | 0.00 | 0.00 | 100 | 1017.7 |
| 20260503193035 | -17 | 79 | 0.0 | 0.0 | 0.00 | 0.00 | 0.00 | 100 | 1017.9 |
| 20260503192534 | -17 | 79 | 0.0 | 0.0 | 0.00 | 0.00 | 0.00 | 100 | 1018.1 |
| 20260503192032 | -17 | 79 | 0.0 | 0.0 | 0.00 | 0.00 | 0.00 | 100 | 1017.9 |
| 20260503191535 | -17 | 79 | 0.0 | 0.0 | 0.00 | 0.00 | 0.00 | 100 | 1018.1 |
| 20260503191030 | -17 | 80 | 0.0 | 3.2 | 0.00 | 0.00 | 0.00 | 100 | 1017.9 |
| 20260503190528 | -17 | 102 | 0.0 | 3.2 | 0.00 | 0.00 | 0.00 | 100 | 1018.0 |
| 20260503190027 | -17 | 106 | 0.0 | 0.0 | 0.00 | 0.00 | 0.00 | 100 | 1017.9 |
| 20260503185525 | -17 | 106 | 0.0 | 1.6 | 0.00 | 0.00 | 0.00 | 100 | 1018.0 |
| 20260503185024 | -17 | 105 | 0.0 | 1.6 | 0.00 | 0.00 | 0.00 | 100 | 1018.1 |
| 20260503184522 | -17 | 106 | 0.0 | 1.6 | 0.00 | 0.00 | 0.00 | 100 | 1018.2 |
| 20260503184021 | -17 | 115 | 0.0 | 1.6 | 0.00 | 0.00 | 0.00 | 100 | 1018.2 |
| 20260503183519 | -17 | 115 | 0.0 | 1.6 | 0.00 | 0.00 | 0.00 | 100 | 1018.4 |
| 20260503183018 | -17 | 115 | 0.0 | 0.0 | 0.00 | 0.00 | 0.00 | 100 | 1018.3 |
| 20260503182516 | -17 | 115 | 0.0 | 0.0 | 0.00 | 0.00 | 0.00 | 96 | 1018.3 |
| 20260503182014 | -17 | 113 | 0.0 | 4.8 | 0.00 | 0.00 | 0.00 | 92 | 1018.3 |
| 20260503181513 | -17 | 118 | 0.0 | 6.4 | 0.00 | 0.00 | 0.00 | 89 | 1018.2 |
| 20260503181012 | -17 | 87 | 1.6 | 9.7 | 0.00 | 0.00 | 0.00 | 86 | 1018.2 |
| 20260503180512 | -17 | 259 | 0.0 | 9.7 | 0.00 | 0.00 | 0.00 | 85 | 1018.2 |
| 20260503180010 | -17 | 24 | 1.6 | 9.7 | 0.00 | 0.00 | 0.00 | 86 | 1018.3 |
| 20260503175507 | -17 | 43 | 0.0 | 8.0 | 0.00 | 0.00 | 0.00 | 86 | 1018.3 |
| 20260503175006 | -17 | 67 | 1.6 | 14.5 | 0.00 | 0.00 | 0.00 | 86 | 1018.4 |
| 20260503174505 | -17 | 113 | 3.2 | 14.5 | 0.00 | 0.00 | 0.00 | 84 | 1018.4 |
| 20260503174004 | -17 | 146 | 0.0 | 12.9 | 0.00 | 0.00 | 0.00 | 82 | 1018.5 |
| 20260503173502 | -17 | 96 | 1.6 | 12.9 | 0.00 | 0.00 | 0.00 | 83 | 1018.5 |
| 20260503173001 | -17 | 91 | 0.0 | 9.7 | 0.00 | 0.00 | 0.00 | 84 | 1018.6 |
| 20260503172602 | -17 | 84 | 1.6 | 12.9 | 0.00 | 0.00 | 0.00 | 84 | 1018.5 |
| 20260503172057 | -17 | 57 | 6.4 | 12.9 | 0.00 | 0.00 | 0.00 | 82 | 1018.6 |
| 20260503171558 | -17 | 85 | 3.2 | 16.1 | 0.00 | 0.00 | 0.00 | 80 | 1018.5 |
| 20260503171055 | -17 | 92 | 3.2 | 16.1 | 0.00 | 0.00 | 0.00 | 80 | 1018.6 |
| 20260503170553 | -17 | 91 | 0.0 | 8.0 | 0.00 | 0.00 | 0.00 | 80 | 1018.6 |
| 20260503150518 | -17 | 162 | 0.0 | 0.0 | 0.00 | 0.00 | 0.00 | 100 | 1018.8 |
| 20260503140110 | -17 | 206 | 0.0 | 0.0 | 0.00 | 0.00 | 0.00 | 100 | 1018.2 |
| 20260503131044 | -17 | 0.0 | 0.0 | 0.00 | 0.00 | 0.00 | 1017.7 | ||
| 20260503130547 | -17 | 0.0 | 0.0 | 0.00 | 0.00 | 0.00 | 1017.6 | ||
| 20260503110508 | -17 | 0.0 | 0.0 | 0.00 | 0.00 | 0.00 | 1017.1 | ||
| 20260503081521 | -17 | 206 | 0.0 | 0.0 | 0.00 | 0.00 | 0.00 | 1016.4 | |
| 20260503081019 | -17 | 208 | 0.0 | 0.0 | 0.00 | 0.00 | 0.00 | 1016.6 | |
| 20260503080516 | -17 | 208 | 0.0 | 0.0 | 0.00 | 0.00 | 0.00 | 100 | 1016.5 |